Tracking 25620 objects as of 18-May-2022
HD Live streaming from Space Station
objects crossing your sky now

COSMOS 2251 DEB

Track COSMOS 2251 DEB now!
10-day predictions


NORAD ID: 34409
Int'l Code: 1993-036RA
Perigee: 657.8 km
Apogee: 781.0 km
Inclination: 74.1 °
Period: 99.0 minutes
Semi major axis: 7090 km
RCS: 0.0076 m2 (small)
Launch date: June 16, 1993
Source: Commonwealth of Independent States (former USSR) (CIS)
Launch site: PLESETSK MISSILE AND SPACE COMPLEX (PKMTR)

Note: This is SATELLITE DEBRIS
aabbcc
Your satellite tracking list
Your tracking list is empty




NASA's NSSDC Master Catalog

Two Line Element Set (TLE):
1 34409U 93036RA  22137.58364359  .00000636  00000-0  15034-3 0  9990
2 34409  74.0643 256.7597 0086886 310.3719  60.2102 14.54096685702005
Source of the keplerian elements: AFSPC